Hourly Data Report for April 28, 2020

MIRAMICHI RCS
NEW BRUNSWICK
Current Station Operator: ECCC - MSC

47°00'34.000" N
65°27'54.000" W
33.00 m
8100989
71744
ACQ

Download Data

Hourly Data (April 2020)
Hourly Data Report for April 28, 2020
TIME
LST
Temp Definition
°C
Dew Point Definition
°C
Rel Hum Definition
%
Precip. Amount Definition
mm

Wind Dir Definition
10's deg

Wind Spd Definition
km/h
Visibility Definition
km
Stn Press Definition
kPa
Hmdx Definition


Wind Chill Definition


Weather Definition


00:00 1.4 -6.1 58 LegendMM 4 15   101.68     LegendNANA
01:00 1.7 -6.0 57 LegendMM 4 18   101.64     LegendNANA
02:00 1.1 -5.5 62 LegendMM 4 16   101.64     LegendNANA
03:00 0.8 -4.8 66 LegendMM 4 14   101.58     LegendNANA
04:00 0.5 -5.0 67 LegendMM 4 14   101.54     LegendNANA
05:00 0.6 -5.1 66 LegendMM 4 15   101.52     LegendNANA
06:00 0.8 -4.8 66 LegendMM 3 15   101.50     LegendNANA
07:00 1.8 -4.7 62 LegendMM 4 17   101.53     LegendNANA
08:00 3.9 -4.1 56 LegendMM 5 17   101.54     LegendNANA
09:00 5.1 -4.5 50 LegendMM 6 26   101.55     LegendNANA
10:00 6.5 -3.3 49 LegendMM 7 28   101.53     LegendNANA
11:00 7.9 -4.9 40 LegendMM 6 28   101.52     LegendNANA
12:00 8.7 -4.6 39 LegendMM 8 32   101.50     LegendNANA
13:00 8.8 -6.2 34 LegendMM 4 33   101.47     LegendNANA
14:00 8.9 -6.7 32 LegendMM 5 34   101.47     LegendNANA
15:00 8.3 -6.7 34 LegendMM 4 33   101.52     LegendNANA
16:00 7.9 -5.8 37 LegendMM 5 32   101.54     LegendNANA
17:00 7.1 -4.9 42 LegendMM 5 28   101.55     LegendNANA
18:00 6.6 -4.1 47 LegendMM 6 22   101.60     LegendNANA
19:00 5.3 -5.5 46 LegendMM 5 21   101.63     LegendNANA
20:00 4.2 -4.7 52 LegendMM 4 17   101.66     LegendNANA
21:00 3.6 -4.8 54 LegendMM 3 14   101.66     LegendNANA
22:00 3.0 -4.5 58 LegendMM 1 10   101.68     LegendNANA
23:00 2.6 -3.4 65 LegendMM 2 11   101.71     LegendNANA

Notes on Data Quality.

Legend

  • E = Estimated
  • M = Missing
  • NA = Not Available*
  • [empty] = Indicates an unobserved value
Date modified: